This is the latest recevied weather packets stored in our database for station/object JA6CFI-13. If no packets are shown the sender has not sent any weather packets the latest 10 day(s).
| Time | Temp. | Humidity | Pressure | Rain* | Wind** | Luminosity | Snow |
|---|---|---|---|---|---|---|---|
| 1777469666 | 13.89° C | 88% | 1018.4 hPa | 0.51 mm | - | - | - |
| 1777468886 | 13.89° C | 87% | 1018.4 hPa | 0.25 mm | - | - | - |
| 1777468329 | 14.44° C | 86% | 1018.4 hPa | 0.25 mm | - | - | - |
| 1777468105 | 14.44° C | 86% | 1018.3 hPa | 0.25 mm | - | - | - |
| 1777467327 | 14.44° C | 84% | 1018.3 hPa | 0.25 mm | - | - | - |
| 1777466547 | 14.44° C | 83% | 1018.2 hPa | 0 mm | - | - | - |
| 1777465766 | 14.44° C | 83% | 1018.1 hPa | 0 mm | - | - | - |
| 1777464986 | 14.44° C | 83% | 1018.2 hPa | 0 mm | - | - | - |
| 1777464205 | 14.44° C | 82% | 1018.1 hPa | 0 mm | - | - | - |
| 1777463427 | 14.44° C | 80% | 1018 hPa | 0 mm | - | - | - |
| 1777462646 | 14.44° C | 80% | 1017.8 hPa | 0 mm | - | - | - |
| 1777461867 | 14.44° C | 80% | 1017.6 hPa | 0 mm | - | - | - |
| 1777461128 | 14.44° C | 80% | 1017.6 hPa | 0 mm | - | - | - |
| 1777461086 | 14.44° C | 80% | 1017.6 hPa | 0 mm | - | - | - |
| 1777460306 | 14.44° C | 79% | 1017.4 hPa | 0 mm | - | - | - |
| 1777459525 | 14.44° C | 81% | 1017.2 hPa | 0 mm | - | - | - |
| 1777459328 | 14.44° C | 81% | 1017.2 hPa | 0 mm | - | - | - |
| 1777458747 | 15° C | 82% | 1017.2 hPa | 0 mm | - | - | - |
| 1777457966 | 15° C | 83% | 1017 hPa | 0 mm | - | - | - |
| 1777457187 | 15.56° C | 82% | 1017.2 hPa | 0 mm | - | - | - |
| 1777456405 | 15.56° C | 79% | 1017.3 hPa | 0 mm | - | - | - |
| 1777455728 | 16.11° C | 78% | 1017.3 hPa | 0 mm | - | - | - |
| 1777455627 | 16.11° C | 77% | 1017.3 hPa | 0 mm | - | - | - |
| 1777454847 | 16.67° C | 73% | 1017.3 hPa | 0 mm | - | - | - |
| 1777454065 | 16.67° C | 71% | 1017.4 hPa | 0 mm | - | - | - |
* Rain latest hour (hover to see other rain measurements)
** Current wind speed in m/s (hover to see current wind gust speed)